sat.trackr.live / text

‹ back to catalog

BEIDOU-3 M8 (C28)

NORAD 43108 · 2018-003B

PAYLOAD ACTIVE UNKNOWN

§ Identity

Operator
Country
PRC
Launch date
2018-01-11
Launch site
XICLF
Launch vehicle
Mass (kg)
RCS (m²)

Purposes: nav

External: N2YO · Heavens-Above · Gunter

§ Orbital elements

Epoch: 2026-09-19T06:17:06.274752Z

Period
773.23 min
Inclination
54.2335°
Eccentricity
0.0004263
Mean motion
1.86231277 rev/d
Perigee alt
21,516.1 km
Apogee alt
21,539.9 km
Semi-major
27,906.2 km
B*
0.0000e+0
RAAN
299.0074°
Arg perigee
263.5699°
Mean anomaly
96.4414°
Rev number
5,911

§ Raw data

BEIDOU-3 M8 (C28)1 43108U 18003B   26262.26187818 -.00000031  00000+0  00000+0 0  99902 43108  54.2335 299.0074 0004263 263.5699  96.4414  1.86231277 59117

JSON: /api/v1/satellites/43108 · /tle

For live sub-satellite position, see the globe view (requires WebGL).

§ Visibility from observer

Set your observer location to see the next 7 days of passes ≥ 10°. The values pass through the URL so the page stays shareable.

No JS? Fill the form by hand. The geolocation button needs JavaScript.